Regional Weather Roundup
Issued by NWS Mt. Holly, NJ

Home | Current Version | Previous Version | Text Only | Print | Product List | Glossary On
Versions: 1 2 3 4 5 6 7 8 9 10 11 12 13 14 15 16 17 18 19 20 21 22 23 24 25 26 27 28
000
ASUS41 KPHI 290512
RWRPHI

REGIONAL WEATHER ROUNDUP
NATIONAL WEATHER SERVICE MOUNT HOLLY NJ
100 AM EDT SUN MAY 29 2016

NOTE:  "FAIR" INDICATES FEW OR NO CLOUDS BELOW 12,000 FEET WITH NO
SIGNIFICANT WEATHER AND/OR OBSTRUCTIONS TO VISIBILITY.

 * = STATION DOES NOT REPORT PRECIPITATION (E.G. RAIN, SNOW, ETC.)
        OR FOG.

NJZ015>026-290600-
SOUTHERN NEW JERSEY

CITY           SKY/WX    TMP DP  RH WIND       PRES   REMARKS
POMONA         PTCLDY    68  61  78 S6        30.17S
WILDWOOD*      CLEAR    N/A N/A N/A S6        30.18S
MILLVILLE      CLEAR     67  58  72 CALM      30.17S
WRIGHTSTOWN    CLEAR     67  48  51 SW7       30.13S
MOUNT HOLLY    CLEAR     69  53  56 CALM      30.15S
TRENTON        CLEAR     72  55  55 S6        30.14S

$$
NJZ001>014-290600-
NORTHERN NEW JERSEY

CITY           SKY/WX    TMP DP  RH WIND       PRES   REMARKS
SUSSEX         CLEAR     69  67  93 CALM      30.14R FOG
ANDOVER*         N/A     68  67  96 CALM      30.15R
MORRISTOWN     CLEAR     72  61  68 CALM      30.13S
NEWARK         CLEAR     77  58  51 SW10      30.12S
TETERBORO      CLEAR     77  61  57 S6        30.11R
CALDWELL       CLEAR     73  67  81 CALM      30.13R
SOMERVILLE     CLEAR     70  65  84 CALM      30.12R
ALLAIRE*       CLEAR     71  45  39 SW7       30.16
TOMS RIVER*    CLEAR    N/A N/A N/A S7        30.16S

$$
PAZ043-044-047-054-055-060>062-066>071-290600-
EASTERN PENNSYLVANIA

CITY           SKY/WX    TMP DP  RH WIND       PRES   REMARKS
PHILADELPHIA   CLOUDY    70  59  68 S6        30.15S
NORTH PHILA    PTCLDY    74  59  59 S3        30.16S
BLUE BELL*     PTCLDY    72  59  64 SW3       30.14F
DOYLESTOWN     CLEAR     72  62  71 S3        30.14S
QUAKERTOWN*    CLEAR     72  66  83 SW5       30.16S
PERKASIE*      FAIR      72  66  83 CALM      30.16S
POTTSTOWN      CLOUDY    72  64  76 CALM      30.16S
LANCASTER      PTCLDY    72  57  59 CALM      30.15S
COATESVILLE    CLOUDY    72  52  49 VRB5      30.18S
READING        MOCLDY    75  59  57 SW6       30.13S
ALLENTOWN      CLEAR     71  63  75 SW5       30.14R
MOUNT POCONO   PTCLDY    68  63  84 W7        30.19S
HAZLETON       MOCLDY    72  64  78 CALM      30.21S
LEHIGHTON      FAIR      64  64 100 CALM      30.15S FOG
WILKES BARRE   CLEAR     74  67  78 CALM      30.14S

$$
DEZALL-MDZ008-012-015-019-020-290600-
DELAWARE AND EASTERN MARYLAND

CITY           SKY/WX    TMP DP  RH WIND       PRES   REMARKS
WILMINGTON     CLOUDY    71  56  58 SW6       30.16S
DOVER          CLEAR     68  60  75 S7        30.15F
GEORGETOWN     CLOUDY    62  60  93 CALM      30.17S
EASTON         CLEAR     67  64  90 CALM      30.19F
PATUXENT       CLEAR     67  61  81 S3        30.15S
OCEAN CITY     PTCLDY    66  63  90 S5        30.17S
WALLOPS ISLAND FAIR      66  64  93 CALM      30.17S
CAMBRIDGE        N/A     61  59  94 CALM      30.16S
SALISBURY      CLOUDY    60  57  89 CALM      30.17R

$$
PAZ001-021-NYZ056-072-MDZ011-DCZ001-290600-
OTHER NEARBY LOCATIONS

CITY           SKY/WX    TMP DP  RH WIND       PRES   REMARKS
HARRISBURG     CLEAR     73  63  70 VRB5      30.13R
STATE COLLEGE  PTCLDY    75  64  70 SW5       30.14S
WILLIAMSPORT   PTCLDY    71  67  87 CALM      30.10S
BINGHAMTON     CLOUDY    73  64  73 S5        30.16R
NEW YORK CITY  CLEAR     77  57  50 VRB5      30.15S
BALTIMORE      PTCLDY    68  59  73 CALM      30.15S
WASHINGTON DC  FAIR      71  63  75 S8        30.16R

$$




USA.gov is the U.S. government's official web portal to all federal, state and local government web resources and services.